Back to catalog

STARLINK-32175

AliveCommunicationsVLEO
NORAD 60339·PAYLOAD·🇺🇸 United States

Launched Aug 2, 2024 from Cape Canaveral Space Force Station

Loading…

Next Passes (next 24 hours)

TLE

FreshSource: CelesTrak SupGP

Epoch: Sep 14, 2026, 13:52 UTC

1 60339C 24136L   26257.57826389  .00022030  00000+0  65114-3 0  2570
2 60339  53.1572 277.1159 0001254  73.6900 189.6372 15.34366252    19

Track STARLINK-32175 in real time with AllMySat

Download on the App Store